Other Public Products
Issued by NWS Grand Forks, ND

Home | Current Version | Previous Version | Graphics & Text | Print | Product List | Glossary On
Versions: 1 2 3 4 5 6 7 8 9 10 11 12 13 14 15 16 17 18 19 20 21 22 23 24 25 26 27 28 29 30 31 32 33 34 35 36 37 38 39 40 41 42 43 44 45 46 47 48 49 50
000
FPUS83 KFGF 231810
OPUFGF
PRAIRIE TO PINES WEATHER ROUNDUP
NATIONAL WEATHER SERVICE EASTERN NORTH DAKOTA/GRAND FORKS ND
100 PM CDT WED JUL 23 2014

 **SATELLITE DATA USED TO AUGMENT SKY COVER AT AUTOMATED STATIONS**
 *****  WEATHER ACROSS EASTERN NORTH DAKOTA  *****

CITY           SKY/WX    TMP DP  RH WIND       PRES   REMARKS
GRAND FORKS    PTSUNNY   71  57  61 N8        30.29F
6HR MIN TEMP:  59; 6HR MAX TEMP:  71;

GRAND FORKS AF MOSUNNY   71  57  61 NE8       30.30F
GRAND CITY NWS   N/A     72 N/A N/A N3          N/A
BUXTON         NOT AVBL
DEVILS LAKE    MOSUNNY   70  54  56 E9        30.30F
6HR MIN TEMP:  61; 6HR MAX TEMP:  70;

FARGO          CLOUDY    75  58  55 N6        30.27F
6HR MIN TEMP:  60; 6HR MAX TEMP:  75;

WAHPETON ARPT  CLEAR     77  50  38 NE7       30.28S
$$

 *****  WEATHER ACROSS CENTRAL AND WESTERN NORTH DAKOTA  *****

CITY           SKY/WX    TMP DP  RH WIND       PRES   REMARKS
JAMESTOWN      SUNNY     75  55  49 S7        30.29F
6HR MIN TEMP:  62; 6HR MAX TEMP:  75; 6HR PCP:  0.01;

BISMARCK       MOSUNNY   77  62  59 SE17      30.25F
6HR MIN TEMP:  64; 6HR MAX TEMP:  79;

MINOT          CLOUDY    71  64  78 E17       30.25F
6HR MIN TEMP:  63; 6HR MAX TEMP:  71; 6HR PCP: TRACE;

MINOT AFB      CLOUDY    71  65  83 E18       30.25S
6HR MIN TEMP:  62; 6HR MAX TEMP:  72; 6HR PCP:  0.02;

GARRISON         N/A     75  66  73 SE12      30.24F
6HR MIN TEMP:  64; 6HR MAX TEMP:  76;

WILLISTON      MOSUNNY   84  62  47 SE14      30.18F
6HR MIN TEMP:  66; 6HR MAX TEMP:  84;

DICKINSON      MOSUNNY   79  65  62 SE17G24   30.19F
6HR MIN TEMP:  60; 6HR MAX TEMP:  79;

HETTINGER      SUNNY     80  62  54 SE18G25   30.21F
6HR MIN TEMP:  61; 6HR MAX TEMP:  80;

$$

 *****  OTHER OBSERVATIONS NORTHEAST NORTH DAKOTA  *****

CITY           SKY/WX    TMP DP  RH WIND       PRES   REMARKS
WALHALLA         N/A     68  55  64 E5          N/A
LANGDON        FAIR      72  54  53 NE8       30.33S
CAVALIER       MOCLDY    68  54  60 NE5       30.31F
GRAFTON        FAIR      68  55  64 N9        30.30F
CANDO          CLOUDY    68  54  60 E8        30.32F
FORT TOTTEN      N/A     68  57  68 E3        29.95S
ROLLA          FAIR      68  54  60 E12       30.33F
RUGBY          FAIR      64  57  77 SE13      30.30F
 ***** THE ABOVE OBSERVATIONS ARE NON NWS ARE NOT QUALITY
        CONTROLLED AND MAY MIS-REPORT RAIN FOR SNOW...
$$

 *****  OTHER OBSERVATIONS SOUTHEAST NORTH DAKOTA *****

CITY           SKY/WX    TMP DP  RH WIND       PRES   REMARKS
COOPERSTOWN    NOT AVBL
VALLEY CITY    FAIR      73  55  53 S3        30.30F
OAKES          NOT AVBL
GWINNER        CLEAR     75  54  46 CALM      30.30S
BUFFALO        NOT AVBL
WYNDMERE       NOT AVBL
 ***** THE ABOVE OBSERVATIONS ARE NON NWS ARE NOT QUALITY
       CONTROLLED AND MAY MIS-REPORT RAIN FOR SNOW...
$$

  *****  WEATHER ACROSS NORTHERN MINNESOTA  *****

CITY           SKY/WX    TMP DP  RH WIND       PRES   REMARKS
FLAG ISLAND    SUNNY     68  48  49 N9        30.29S
WARROAD        NOT AVBL
ROSEAU         MOSUNNY   70  57  64 NE3       30.29S
HALLOCK        SUNNY     70  52  52 N7        30.29F
THF RVR FALLS  SUNNY     70  54  56 N6        30.29S
6HR MIN TEMP:  59; 6HR MAX TEMP:  70;

HALSTAD          N/A     73  55  53 N7          N/A
FOSSTON        MOSUNNY   72  50  46 NW8       30.29F
BAUDETTE       MOSUNNY   70  52  52 CALM      30.29F
6HR MIN TEMP:  56; 6HR MAX TEMP:  72;

WASKISH        SUNNY     72  57  60 CALM      30.27F
CROOKSTON      MOSUNNY   70  57  64 NW8       30.30S
$$
  *****  WEATHER ACROSS CENTRAL AND WEST MINNESOTA  *****

CITY           SKY/WX    TMP DP  RH WIND       PRES   REMARKS
BEMIDJI        MOSUNNY   72  51  47 NW8       30.27F
PARK RAPIDS    MOSUNNY   73  53  49 N5        30.27F
6HR MIN TEMP:  55; 6HR MAX TEMP:  74;

WADENA         MOSUNNY   72  57  60 NW5       30.28S
DETROIT LAKES  MOSUNNY   72  55  56 N5        30.30F
MOORHEAD       MOSUNNY   75  63  64 N5        30.28F
FERGUS FALLS   MOSUNNY   75  52  43 CALM      30.27F
ELBOW LAKE     FAIR      74  56  54 N7        30.28S
MORRIS MN      SUNNY     79  59  50 E6        30.27S
STAPLES        PTSUNNY   73  55  53 W8        30.27F
WHEATON          N/A     73  57  56 SE3       30.29S
$$
  *****  WEATHER ELSEWHERE ACROSS MINNESOTA  *****

CITY           SKY/WX    TMP DP  RH WIND       PRES   REMARKS
DULUTH         MOSUNNY   72  52  49 N7        30.25S
6HR MIN TEMP:  60; 6HR MAX TEMP:  74;

INTRNTL FALLS  CLOUDY    72  50  45 N6        30.27F
6HR MIN TEMP:  61; 6HR MAX TEMP:  72;

ELY            PTSUNNY   66  50  55 N3        30.26S
CLOQUET        MOSUNNY   72  54  53 NW13G18   30.25S
BRAINERD       MOSUNNY   72  53  51 VRB5      30.27S
6HR MIN TEMP:  56; 6HR MAX TEMP:  73;

HIBBING        PTSUNNY   73  53  49 N12       30.26F
6HR MIN TEMP:  59; 6HR MAX TEMP:  73;

ALEXANDRIA     PTSUNNY   74  55  51 VRB6      30.29F
6HR MIN TEMP:  63; 6HR MAX TEMP:  75;

SAINT CLOUD    MOSUNNY   80  53  39 N10G17    30.26R
6HR MIN TEMP:  60; 6HR MAX TEMP:  80;

MINNEAPOLIS    MOSUNNY   78  51  38 W9G18     30.23S
6HR MIN TEMP:  65; 6HR MAX TEMP:  81;

$$

  *****  WEATHER ACROSS SOUTH DAKOTA  *****

CITY           SKY/WX    TMP DP  RH WIND       PRES   REMARKS
SIOUX FALLS    MOSUNNY   78  55  44 E5        30.27F
6HR MIN TEMP:  60; 6HR MAX TEMP:  78;

BROOKINGS      NOT AVBL
WATERTOWN      SUNNY     76  52  43 VRB3      30.28F
6HR MIN TEMP:  57; 6HR MAX TEMP:  77;

HURON          SUNNY     79  55  43 E9        30.26F
6HR MIN TEMP:  61; 6HR MAX TEMP:  79;

SISSETON         N/A     76  56  49 CALM      30.27F
ABERDEEN       MOSUNNY   77  54  44 S10G16    30.27F
6HR MIN TEMP:  55; 6HR MAX TEMP:  77;

MITCHELL       SUNNY     80  55  42 E6        30.27F
PIERRE         SUNNY     82  56  40 E18G25    30.23F
6HR MIN TEMP:  64; 6HR MAX TEMP:  82;

MOBRIDGE       PTSUNNY   79  61  53 SE16      30.23F
RAPID CITY     SUNNY     78  63  59 SE16      30.23F
6HR MIN TEMP:  63; 6HR MAX TEMP:  79;

$$

  *****  SOME WEATHER IN NEARBY STATES *****

CITY           SKY/WX    TMP DP  RH WIND       PRES   REMARKS
GLASGOW MT     MOSUNNY   84  59  42 E17       30.11F
6HR MIN TEMP:  60; 6HR MAX TEMP:  85;

GREAT FALLS MT SUNNY     81  54  39 SE10      30.07F
6HR MIN TEMP:  58; 6HR MAX TEMP:  81; 6HR PCP:  0.08;

CHEYENNE WY    MOSUNNY   75  60  59 S15G26    30.40F
6HR MIN TEMP:  62; 6HR MAX TEMP:  75;

SCOTTSBLUFF NE MOSUNNY   84  63  49 S12G22    30.28F
6HR MIN TEMP:  68; 6HR MAX TEMP:  85;

OMAHA NE       MOSUNNY   83  57  41 N6        30.22F
6HR MIN TEMP:  65; 6HR MAX TEMP:  83;

DES MOINES IA  PTSUNNY   83  59  44 NE8       30.21S
6HR MIN TEMP:  68; 6HR MAX TEMP:  83;

DAVENPORT IA   SUNNY     77  57  50 NE12      30.18F
6HR MIN TEMP:  67; 6HR MAX TEMP:  77;

CHICAGO IL     MOSUNNY   74  48  39 NE20G26   30.16F
6HR MIN TEMP:  65; 6HR MAX TEMP:  75;

EAU CLAIRE WI  MOSUNNY   79  55  43 NE6       30.21S
6HR MIN TEMP:  60; 6HR MAX TEMP:  80;

LA CROSSE WI   MOSUNNY   78  57  48 W9        30.21S
6HR MIN TEMP:  66; 6HR MAX TEMP:  80;

$$

  *****  SOME NATIONAL WEATHER *****

CITY           SKY/WX    TMP DP  RH WIND       PRES   REMARKS
LA GUARDIA NY  MOSUNNY   87  72  60 S15G22    29.87F HX  93
6HR MIN TEMP:  76; 6HR MAX TEMP:  88;



USA.gov is the U.S. government's official web portal to all federal, state and local government web resources and services.